Weather History for Tampa Macdill AFB, FL

Change the Weather History Date:

Tuesday, September 25, 2012

  Actual Average Record
Temperature  
Mean Temperature 76 °F -  
Max Temperature 86 °F 85 °F 91 °F (2010)
Min Temperature 66 °F 71 °F 65 °F (2008)
Cooling Degree Days 11    
Growing Degree Days 26 (Base 50)    
Moisture  
Dew Point 67 °F    
Average Humidity 78    
Maximum Humidity 93    
Minimum Humidity 51    
Precipitation  
Precipitation 0.00 in - - ()
Sea Level Pressure  
Sea Level Pressure 30.08 in    
Wind  
Wind Speed 4 mph (East)    
Max Wind Speed 8 mph    
Max Gust Speed -    
Visibility 10 miles    
Events      
Averages and records for this station are not official NWS values.
T = Trace of Precipitation, MM = Missing Value Source: NWS Daily Summary

Daily Weather History Graph

Daily Weather History Graph

Search for Another Location

Airport:

Trip Planner

Search our weather history database for the weather conditions in past years. The results will help you decide how hot, cold, wet, or windy it might be!

Date:

Astronomy

Sep. 25, 2012 Rise Set
Actual Time 7:20 AM EDT 7:22 PM EDT
Civil Twilight 6:56 AM EDT 7:45 PM EDT
Nautical Twilight 6:29 AM EDT 8:13 PM EDT
Astronomical Twilight 6:02 AM EDT 8:40 PM EDT
Moon 4:28 PM EDT (9/25) 3:01 AM EDT (9/25)
Length of Visible Light 12h 49m
Length of Day
12h 02m
Waxing Gibbous, 80% of the Moon is Illuminated
Sep 25
Waxing Gibbous
Sep 29
Full
Oct 8
Last Quarter
Oct 15
New
Oct 21
First Quarter

Hourly Weather History & Observations

Time (EDT) Temp. Heat Index Dew Point Humidity Pressure Visibility Wind Dir Wind Speed Gust Speed Precip Events Conditions
12:55 AM 69.1 °F - 65.8 °F 89% 30.07 in 10.0 mi ENE 8.1 mph - N/A   Clear
1:55 AM 68.5 °F - 65.3 °F 89% 30.08 in 10.0 mi ENE 4.6 mph - N/A   Clear
2:55 AM 67.8 °F - 64.8 °F 90% 30.06 in 10.0 mi East 6.9 mph - N/A   Clear
3:55 AM 67.1 °F - 64.4 °F 91% 30.06 in 10.0 mi ENE 4.6 mph - N/A   Clear
4:55 AM 67.1 °F - 64.6 °F 92% 30.05 in 10.0 mi ENE 6.9 mph - N/A   Clear
5:55 AM 66.7 °F - 64.4 °F 92% 30.06 in 10.0 mi ENE 5.8 mph - N/A   Clear
6:55 AM 66.9 °F - 64.0 °F 90% 30.07 in 10.0 mi Calm Calm - N/A   Clear
7:55 AM 66.4 °F - 64.2 °F 93% 30.08 in 10.0 mi NNE 3.5 mph - N/A   Clear
8:55 AM 69.6 °F - 67.5 °F 93% 30.09 in 9.0 mi Calm Calm - N/A   Clear
9:55 AM 74.1 °F - 68.5 °F 83% 30.10 in 10.0 mi Calm Calm - N/A   Clear
10:55 AM 76.8 °F - 70.0 °F 79% 30.11 in 10.0 mi Calm Calm - N/A   Partly Cloudy
11:55 AM 80.8 °F 83.3 °F 67.5 °F 64% 30.12 in 10.0 mi ESE 5.8 mph - N/A   Partly Cloudy
12:55 PM 81.7 °F 83.0 °F 63.3 °F 54% 30.10 in 10.0 mi SE 3.5 mph - N/A   Partly Cloudy
1:55 PM 85.6 °F 87.6 °F 65.8 °F 51% 30.09 in 10.0 mi South 4.6 mph - N/A   Clear
3:55 PM 84.9 °F 87.9 °F 67.6 °F 56% 30.05 in 10.0 mi Calm Calm - N/A   Clear
4:55 PM 86.0 °F 88.8 °F 67.3 °F 53% 30.05 in 10.0 mi ENE 4.6 mph - N/A   Clear
5:55 PM 83.7 °F 86.2 °F 66.9 °F 57% 30.05 in 10.0 mi SE 4.6 mph - N/A   Clear
6:55 PM 80.8 °F 83.8 °F 68.9 °F 67% 30.06 in 10.0 mi East 3.5 mph - N/A   Clear
7:55 PM 75.7 °F - 65.8 °F 71% 30.06 in 10.0 mi Calm Calm - N/A   Clear
8:55 PM 73.2 °F - 66.2 °F 79% 30.08 in 10.0 mi Calm Calm - N/A   Clear
9:55 PM 73.6 °F - 68.4 °F 84% 30.10 in 10.0 mi ENE 4.6 mph - N/A   Clear
10:55 PM 74.7 °F - 72.5 °F 93% - 10.0 mi North - - N/A   Clear
11:55 PM - - - N/A% - - North - - N/A   Unknown